This demonstration page uses our WeatherBlox Daily Observations layout. Learn more.

Left ArrowRight Arrow

Hourly Observations for January 12, 2017

Temp ( °F °C ) Dew Point ( °F °C ) Humidity (%) Winds ( mph kmh ) Pressure ( in mb ) Visibility ( mi km ) Precip ( " mm )
12:53 am 00:53 Cloudy 42 5.6 39 3.9 89 89 N 6 9 29.89 1012 10 16 0.00 0.00
1:53 am 01:53 Cloudy 42 5.6 41 5 96 96 Calm 29.90 1012 10 16 0.00 0.00
2:24 am 02:24 Cloudy with Light Rain 43 6.1 40 4.4 89 89 NNE 7 11 29.94 1014 10 16 0.00 0.03
2:53 am 02:53 Cloudy 42 5.6 40 4.4 92 92 W 5 7 29.91 1013 10 16 0.00 0.03
3:11 am 03:11 Cloudy 42 5.6 40 4.4 92 92 NNW 3 6 29.94 1014 10 16 0.00 0.00
3:29 am 03:29 Cloudy 42 5.6 40 4.4 92 92 NNW 3 6 29.94 1014 10 16 0.00 0.00
3:53 am 03:53 Cloudy with Light Rain 42 5.6 39 3.9 89 89 N 9 15 29.90 1013 10 16 0.01 0.25
4:13 am 04:13 Cloudy 43 6 39 4 87 87 NNE 5 7 29.94 1014 10 16 0.00 0.00
4:53 am 04:53 Cloudy 42 5.6 39 3.9 89 89 N 6 9 29.89 1012 10 16 0.00 0.03
5:53 am 05:53 Cloudy 41 5 40 4.4 96 96 NW 5 7 29.88 1012 10 16 0.02 0.51
6:53 am 06:53 Cloudy 41 5 39 3.9 93 93 NW 5 7 29.89 1012 10 16 0.00 0.00
7:53 am 07:53 Cloudy 41 5 39 3.9 93 93 Calm 29.91 1013 10 16 0.00 0.00
8:53 am 08:53 Cloudy 42 5.6 39 3.9 89 89 NW 3 6 29.93 1014 10 16 0.00 0.00
9:53 am 09:53 Partly Cloudy 44 6.7 38 3.3 79 79 NNW 6 9 29.94 1014 10 16 0.00 0.00
10:53 am 10:53 Sunny 48 8.9 35 1.7 61 61 N 9 15 29.94 1014 10 16 0.00 0.00
11:53 am 11:53 Mostly Cloudy 49 9.4 37 2.8 64 64 N 7 11 29.93 1013 10 16 0.00 0.00
12:53 pm 12:53 Mostly Cloudy 51 10.6 34 1.1 52 52 NNE 14 22 29.91 1013 10 16 0.00 0.00
1:53 pm 13:53 Cloudy 51 10.6 35 1.7 54 54 N 12 19 29.90 1012 10 16 0.00 0.00
2:53 pm 14:53 Partly Cloudy 52 11.1 35 1.7 53 53 NNE 9 15 29.91 1013 10 16 0.00 0.00
3:53 pm 15:53 Cloudy 52 11.1 33 0.6 49 49 NNE 12 19 29.92 1013 10 16 0.00 0.00
4:53 pm 16:53 Cloudy 52 11.1 32 0 47 47 NNE 16 26 29.93 1014 10 16 0.00 0.00
5:53 pm 17:53 Cloudy 51 10.6 33 0.6 50 50 NNE 14 22 29.96 1014 10 16 0.00 0.00
6:53 pm 18:53 Cloudy 50 10 33 0.6 52 52 N 18 30 29.98 1015 10 16 0.00 0.00
7:53 pm 19:53 Clear 49 9.4 32 0 52 52 NNW 16 26 30.01 1016 10 16 0.00 0.00
9:53 pm 21:53 Clear 46 7.8 30 -1.1 54 54 N 7 11 30.05 1018 10 16 0.00 0.00
10:53 pm 22:53 Clear 46 7.8 29 -1.7 51 51 N 9 15 30.06 1018 10 16 0.00 0.00
11:53 pm 23:53 Clear 46 7.8 28 -2.2 50 50 N 9 15 30.09 1019 10 16 0.00 0.00

Powered by AerisWeather